Weather History for Grand Island, NE

Change the Weather History Date:

Monday, October 7, 2013

  Actual Average Record
Temperature  
Mean Temperature 58 °F 56 °F  
Max Temperature 77 °F 69 °F 91 °F (1980)
Min Temperature 38 °F 43 °F 19 °F (2000)
Degree Days  
Heating Degree Days 7 10  
Month to date heating degree days 42 62  
Since 1 July heating degree days 66 177  
Cooling Degree Days 0 1  
Month to date cooling degree days 9 7  
Year to date cooling degree days 1259 1030  
Growing Degree Days 7 (Base 50)    
Moisture  
Dew Point 40 °F    
Average Humidity 61    
Maximum Humidity 92    
Minimum Humidity 29    
Precipitation  
Precipitation 0.00 in 0.06 in 2.17 in (1992)
Month to date precipitation 2.26 0.48  
Year to date precipitation 24.05 23.48  
Snow  
Snow 0.00 in 0.00 in - ()
Month to date snowfall 0.0 0.1  
Since 1 July snowfall 0.0 0.2  
Since 1 September snowfall 0.0 0.2  
Snow Depth 0.00 in    
Sea Level Pressure  
Sea Level Pressure 30.05 in    
Wind  
Wind Speed 9 mph (SW)    
Max Wind Speed 16 mph    
Max Gust Speed 21 mph    
Visibility 10 miles    
Events      
T = Trace of Precipitation, MM = Missing Value Source: NWS Daily Summary

Daily Weather History Graph

Daily Weather History Graph

Search for Another Location

Airport:

Trip Planner

Search our weather history database for the weather conditions in past years. The results will help you decide how hot, cold, wet, or windy it might be!

Date:

Astronomy

Oct. 07, 2013 Rise Set
Actual Time 7:36 AM CDT 7:04 PM CDT
Civil Twilight 7:08 AM CDT 7:32 PM CDT
Nautical Twilight 6:37 AM CDT 8:04 PM CDT
Astronomical Twilight 6:05 AM CDT 8:35 PM CDT
Moon 10:29 AM CDT (10/7) 8:49 PM CDT (10/7)
Length of Visible Light 12h 23m
Length of Day
11h 28m
Waxing Crescent, 9% of the Moon is Illuminated
Oct 7
Waxing Crescent
Oct 11
First Quarter
Oct 18
Full
Oct 26
Last Quarter
Nov 3
New

Hourly Weather History & Observations

Time (CDT) Temp. Windchill Dew Point Humidity Pressure Visibility Wind Dir Wind Speed Gust Speed Precip Events Conditions
12:53 AM 44.1 °F 39.5 °F 36.0 °F 73% 30.10 in 10.0 mi WNW 8.1 mph - N/A   Clear
1:53 AM 43.0 °F 38.8 °F 37.0 °F 80% 30.10 in 10.0 mi West 6.9 mph - N/A   Clear
2:53 AM 42.1 °F 37.1 °F 36.0 °F 79% 30.10 in 10.0 mi West 8.1 mph - N/A   Clear
3:53 AM 39.9 °F 35.8 °F 36.0 °F 86% 30.09 in 10.0 mi West 5.8 mph - N/A   Clear
4:53 AM 39.9 °F 36.7 °F 36.0 °F 86% 30.09 in 10.0 mi WSW 4.6 mph - N/A   Clear
5:53 AM 39.0 °F 34.8 °F 35.1 °F 86% 30.10 in 10.0 mi WSW 5.8 mph - N/A   Clear
6:53 AM 37.9 °F 32.7 °F 35.1 °F 89% 30.11 in 10.0 mi WSW 6.9 mph - N/A   Clear
7:53 AM 39.0 °F 35.7 °F 35.1 °F 86% 30.12 in 10.0 mi SW 4.6 mph - N/A   Clear
8:53 AM 46.9 °F - 39.0 °F 74% 30.12 in 10.0 mi WSW 5.8 mph - N/A   Clear
9:53 AM 54.0 °F - 41.0 °F 62% 30.12 in 10.0 mi WSW 6.9 mph - N/A   Clear
10:53 AM 61.0 °F - 43.0 °F 52% 30.11 in 10.0 mi WSW 8.1 mph - N/A   Clear
11:53 AM 66.9 °F - 42.1 °F 40% 30.09 in 10.0 mi WSW 10.4 mph - N/A   Clear
12:53 PM 70.0 °F - 39.9 °F 33% 30.07 in 10.0 mi SW 9.2 mph - N/A   Clear
1:53 PM 73.0 °F - 42.1 °F 33% 30.04 in 10.0 mi SSW 12.7 mph - N/A   Clear
2:53 PM 75.0 °F - 42.1 °F 31% 30.01 in 10.0 mi WSW 11.5 mph 19.6 mph N/A   Clear
3:53 PM 75.9 °F - 42.1 °F 30% 29.99 in 10.0 mi SSW 12.7 mph - N/A   Clear
4:53 PM 77.0 °F - 43.0 °F 30% 29.98 in 10.0 mi SSW 11.5 mph - N/A   Clear
5:53 PM 75.0 °F - 42.1 °F 31% 29.97 in 10.0 mi SSW 9.2 mph - N/A   Clear
6:53 PM 66.9 °F - 44.1 °F 44% 29.98 in 10.0 mi SSE 6.9 mph - N/A   Clear
7:53 PM 61.0 °F - 44.1 °F 54% 29.99 in 10.0 mi SSE 8.1 mph - N/A   Clear
8:53 PM 61.0 °F - 42.1 °F 50% 29.97 in 10.0 mi South 11.5 mph - N/A   Clear
9:53 PM 60.1 °F - 42.1 °F 51% 29.97 in 10.0 mi South 11.5 mph - N/A   Clear
10:53 PM 61.0 °F - 39.9 °F 46% 29.95 in 10.0 mi South 15.0 mph - N/A   Clear
11:53 PM 59.0 °F - 39.0 °F 48% 29.94 in 10.0 mi South 13.8 mph - N/A   Clear